Tracking 19246 objects as of 21-Sep-2018
HD Live streaming from Space Station
objects crossing your sky now

FENGYUN 1C DEB

Track FENGYUN 1C DEB now!
10-day predictions


NORAD ID: 36155
Int'l Code: 1999-025DSC
Perigee: 823.6 km
Apogee: 865.3 km
Inclination: 99.0 °
Period: 101.7 minutes
Semi major axis: 7215 km
RCS: 0.0109 m2 (small)
Launch date: May 10, 1999
Source: People's Republic of China (PRC)
Launch site: Taiyaun Space Center, China (TSC)

Note: This is SATELLITE DEBRIS
aabbcc
Your satellite tracking list
Your tracking list is empty




NASA's NSSDC Master Catalog

Two Line Element Set (TLE):
1 36155U 99025DSC 18262.83822324  .00000635  00000-0  34090-3 0  9999
2 36155  99.0386 281.6408 0028878  40.0150 320.3144 14.16479086572961
Source of the keplerian elements: AFSPC